Location: Saint-Maurice-d�Ard�che
(44.5216°N, 4.4002°E)
Time: 11:30:19
(UTC+00:00)

Cosmos 2154 Rocket - Pass Details

Date: 30 March 2020
Orbit: 965 x 997 km, 82.9° (Epoch: 03 June)

Event Time Altitude Azimuth Distance (km) Brightness Sun altitude
Rises 20:08:42 0° 354° (N) 3,729 7.5 -21.2°
Reaches altitude 10° 20:11:18 10° 359° (N) 2,776 6.8 -21.6°
Maximum altitude 20:17:35 58° 78° (ENE) 1,153 4.1 -22.6°
Enters shadow 20:19:11 46° 127° (SE) 1,322 4.2 -22.8°
